Regional Weather Roundup
Issued by NWS Little Rock, AR

Home | Current Version | Previous Version | Text Only | Print | Product List | Glossary On
Versions: 1 2 3 4 5 6 7 8 9 10 11 12 13 14 15 16 17 18 19 20 21 22 23 24 25 26 27 28 29 30 31 32 33 34 35 36 37 38 39 40 41 42 43 44 45 46 47 48 49 50
000
ASUS44 KLZK 292105
RWRLZK

WEATHER ROUNDUP FOR ARKANSAS
NATIONAL WEATHER SERVICE LITTLE ROCK AR
400 PM CDT FRI JUL 29 2016

NOTE: "FAIR" INDICATES FEW OR NO CLOUDS BELOW 12,000 FEET WITH NO
SIGNIFICANT WEATHER AND/OR OBSTRUCTIONS TO VISIBILITY.

ARZ001-003-010-029-292200-
NORTHWEST ARKANSAS

CITY           SKY/WX    TMP DP  RH WIND       PRES   REMARKS
FAYETTEVILLE   SUNNY     83  71  67 SE3       29.97F HX  87
FORT SMITH     SUNNY     86  69  56 NE8       29.93F HX  90
HARRISON       CLOUDY    75  71  87 S6        30.00F
BENTONVILLE    MOSUNNY   84  70  61 N7        29.98F HX  88
ROGERS         CLOUDY    83  71  67 NE7       29.98F HX  87
SILOAM SPGS    MOSUNNY   84  66  54 NE9       29.99S HX  86
HIGHFILL       SUNNY     86  72  62 N10       29.97F HX  92
SPRINGDALE     MOSUNNY   86  73  66 N6G13     29.99F HX  93
$$

ARZ004-005-016-292200-
NORTH CENTRAL ARKANSAS

CITY           SKY/WX    TMP DP  RH WIND       PRES   REMARKS
BATESVILLE     CLOUDY    75  72  88 W13G18    30.00R
FLIPPIN        CLOUDY    72  68  88 CALM      29.95F
MTN HOME       TSTM      72  72 100 S3        29.97F
$$

ARZ040-041-292200-
WEST CENTRAL ARKANSAS

CITY           SKY/WX    TMP DP  RH WIND       PRES   REMARKS
MENA             N/A    N/A N/A N/A MISG        N/A
MOUNT IDA      CLOUDY    84  73  69 CALM      29.93F HX  90
$$

ARZ009-017-025-026-028-292200-
NORTHEAST ARKANSAS

CITY           SKY/WX    TMP DP  RH WIND       PRES   REMARKS
CORNING          N/A     86  81  84 S8        29.92R HX 102
JONESBORO      CLOUDY    82  76  81 SW8       29.93R HX  89
NEWPORT        CLOUDY    76  73  90 SW7       29.97R
WALNUT RIDGE   CLOUDY    84  75  74 S12       29.92S HX  92
BLYTHEVILLE    CLOUDY    83  75  77 S10       29.93S HX  90
$$

ARZ022-023-033-042-044-292200-
CENTRAL ARKANSAS

CITY           SKY/WX    TMP DP  RH WIND       PRES   REMARKS
LITTLE ROCK    CLOUDY    90  74  59 NW14      29.92S THUNDER HX  99
N LITTLE ROCK    N/A     74  71  90 W7        29.92R
JACKSONVILLE   TSTM      79  74  85 N5        29.93R
SEARCY         TSTM      72  70  93 S9G21     30.05R FOG
HOT SPRINGS    CLOUDY    78  73  84 SW6       29.94S
RUSSELLVILLE   CLOUDY    80  72  76 CALM      29.93F
$$

ARZ036-292200-
EAST ARKANSAS

CITY           SKY/WX    TMP DP  RH WIND       PRES   REMARKS
WEST MEMPHIS   PTSUNNY   87  77  72 SW5       29.91F HX  99
$$

ARZ050-053-066-070-073-292200-
SOUTHWEST ARKANSAS

CITY           SKY/WX    TMP DP  RH WIND       PRES   REMARKS
ARKADELPHIA    FAIR      93  77  59 SW9       29.91F HX 107
CAMDEN         MOSUNNY   91  73  55 SW8       29.93F HX 100
TEXARKANA      CLOUDY    87  69  54 W12       29.94S HX  91
EL DORADO      MOSUNNY   91  75  59 SW7       29.95F HX 101
DE QUEEN       PTSUNNY   88  73  61 VRB3      29.90F HX  95
$$

ARZ056-057-069-292200-
SOUTHEAST ARKANSAS

CITY           SKY/WX    TMP DP  RH WIND       PRES   REMARKS
PINE BLUFF     MOSUNNY   90  75  61 SW12      29.92F HX 100
STUTTGART      MOSUNNY   93  77  59 SW9       29.92S HX 107
MONTICELLO     MOSUNNY   92  75  57 SW8       29.94F HX 103

$$





USA.gov is the U.S. government's official web portal to all federal, state and local government web resources and services.